Lid_Strength_Index
3 3 4 4 4 4 6 9 10 4 6 12 11 12 9 8 8 7 9 9 10 11 10 11 11 11 9 7 7 11 10 13 16 13 9 8 10 11 12 17 18 17 17 17
5 4 4 4 4 4 7 10 9 5 6 15 13 11 9 8 9 8 9 10 10 9 11 13 10 10 7 6 9 11 10 14 17 15 12 10 12 11 12 13 14 18 19 17
5 5 4 4 4 4 8 9 12 10 9 10 12 12 11 10 7 8 9 9 9 10 11 10 11 10 8 7 7 6 8 12 15 18 15 12 15 12 11 13 17 16 16 14
6 6 5 4 4 4 7 10 12 11 14 13 12 12 10 10 11 8 9 11 10 11 13 11 12 10 9 8 7 8 10 15 13 12 12 12 12 13 12 13 13 16 14 13
7 7 6 5 5 4 8 12 13 12 13 12 12 11 12 11 10 10 11 12 10 11 12 11 12 10 11 11 9 11 10 14 13 14 12 12 13 12 12 12 12 12 12 12
7 7 7 6 5 6 10 9 9 10 12 13 14 13 12 11 10 9 8 10 11 11 10 7 7 7 7 9 11 12 11 13 15 16 12 13 16 13 12 12 11 11 13 11
7 7 7 7 6 6 9 9 8 13 15 13 13 11 11 11 10 11 9 9 11 9 6 7 7 8 8 9 10 10 12 13 13 16 15 20 13 9 10 11 10 11 11 10
7 7 7 7 7 6 10 9 10 9 13 13 12 11 12 11 10 11 10 8 8 8 9 11 13 12 12 11 10 11 9 12 15 17 18 14 12 11 11 12 13 10 10 9
8 8 7 7 7 7 10 10 8 7 10 14 10 12 11 13 14 12 9 7 7 9 10 12 16 17 14 15 13 9 10 10 14 15 19 20 14 10 7 8 15 9 9 9
8 8 8 7 7 7 8 10 9 9 11 10 11 13 13 12 12 11 10 9 10 9 11 15 15 16 11 16 16 16 14 14 16 16 17 15 10 8 7 16 14 9 8 8
8 8 8 8 7 7 7 10 9 10 11 11 10 10 11 12 11 12 11 10 10 12 13 13 13 14 13 13 12 17 15 16 16 15 17 18 8 9 13 10 8 8 8 8
8 8 8 8 7 7 6 10 8 8 10 11 9 8 8 8 8 9 10 9 9 9 10 11 11 13 12 13 16 11 15 13 14 14 14 9 8 10 8 7 8 8 8 8
8 8 8 8 7 7 7 8 9 10 11 12 12 11 8 7 6 4 9 8 7 8 6 8 10 13 10 14 13 12 10 8 12 12 10 10 10 8 7 7 7 7 6 7
8 8 8 8 7 7 6 8 9 9 10 14 13 8 8 5 5 5 4 5 5 6 6 8 10 12 9 12 10 11 10 9 11 11 9 9 9 8 7 7 7 6 5 5
8 8 8 8 7 7 7 8 9 9 11 14 13 9 8 6 5 4 5 5 6 7 8 9 10 8 9 9 9 11 9 10 12 13 8 10 9 7 6 7 7 6 6 6
8 8 8 8 7 6 9 12 6 8 8 11 14 10 8 6 4 4 5 6 6 6 8 8 8 6 9 12 13 8 7 7 7 8 7 9 7 7 6 7 6 6 6 6
8 8 8 8 6 8 11 11 9 6 6 10 12 11 8 5 4 4 5 5 5 6 7 9 8 8 8 10 13 8 7 6 6 6 8 9 7 8 7 7 7 6 6 6
8 8 8 7 6 6 8 8 5 5 7 8 12 11 10 6 8 8 5 7 6 7 8 8 9 8 8 12 9 7 6 6 7 8 8 7 7 8 7 7 7 7 8 7
8 7 7 8 9 9 7 4 4 5 8 11 11 12 13 7 8 7 8 6 10 7 9 9 8 10 12 9 8 7 7 8 8 8 8 8 8 8 8 8 8 8 9 9
7 8 10 10 8 3 5 7 8 9 8 9 11 8 10 7 7 8 8 9 10 12 10 7 10 11 7 7 6 6 6 7 8 10 10 10 8 8 8 9 8 8 9 10
12 14 14 11 7 10 11 12 10 11 12 10 10 9 9 6 9 10 8 11 10 13 11 11 12 12 9 6 6 6 6 7 8 9 9 9 8 9 9 9 9 9 10 10
12 12 11 11 10 11 13 13 9 11 11 10 10 9 8 7 6 9 9 11 10 14 8 12 14 10 7 6 5 7 7 7 8 8 9 8 9 9 9 9 10 9 9 10
10 12 13 12 12 17 13 15 14 15 12 10 11 12 10 7 8 10 9 12 12 9 13 13 11 9 7 6 5 6 7 7 7 8 9 8 9 8 8 9 9 9 10 10
12 12 19 14 14 13 13 15 14 12 12 12 13 13 12 10 11 10 12 9 10 14 15 14 12 11 9 8 4 6 7 7 7 7 8 9 9 9 9 9 9 10 11 11
13 13 19 14 12 13 13 13 13 12 12 13 13 12 11 11 11 9 10 12 14 13 15 13 12 11 9 6 5 5 5 7 7 8 8 9 9 10 10 9 10 9 10 11
12 13 14 13 14 14 14 13 13 12 12 12 12 11 11 11 10 12 13 14 16 14 13 12 10 9 8 5 5 5 4 6 7 7 8 8 9 10 10 9 10 10 11 11
12 14 12 13 14 14 14 13 12 11 12 14 12 12 12 9 12 13 12 14 12 11 10 9 9 9 9 6 4 4 4 4 5 7 7 8 8 9 9 10 10 10 10 10